Powrót do katalogu

COSMOS 2251 DEB

AktywnyLEO
NORAD 35674·DEBRIS·🇷🇺 Russia

Wystrzelony Jun 16, 1993 z Plesetsk Cosmodrome

Loading…

Następne Przeloty (najbliższe 24 godziny)

TLE

ŚwieżeSource: Space-Track

Epoka: Sep 14, 2026, 10:32 UTC

1 35674U 93036APR 26257.43911959  .00002985  00000-0  63354-3 0  9997
2 35674  74.0580 154.4975 0092051 131.3102 229.6033 14.56936613901238

Śledź COSMOS 2251 DEB w czasie rzeczywistym z AllMySat

Download on the App Store